This is the latest recevied weather packets stored in our database for station/object OK2PAT-12. If no packets are shown the sender has not sent any weather packets the latest 10 day(s).
| Time | Temp. | Humidity | Pressure | Rain* | Wind** | Luminosity | Snow |
|---|---|---|---|---|---|---|---|
| 1777555757 | 11.67° C | 32% | 1030.4 hPa | - | - | - | - |
| 1777555157 | 11.67° C | 34% | 1030.5 hPa | - | - | - | - |
| 1777554557 | 11.67° C | 34% | 1030.7 hPa | - | - | - | - |
| 1777553957 | 11.67° C | 34% | 1030.8 hPa | - | - | - | - |
| 1777553358 | 13.89° C | 34% | 1031 hPa | - | - | - | - |
| 1777552757 | 11.11° C | 34% | 1031.1 hPa | - | - | - | - |
| 1777552157 | 11.11° C | 34% | 1031.2 hPa | - | - | - | - |
| 1777551557 | 11.11° C | 34% | 1031.3 hPa | - | - | - | - |
| 1777550957 | 11.11° C | 34% | 1031.4 hPa | - | - | - | - |
| 1777550357 | 10.56° C | 34% | 1021 hPa | - | - | - | - |
| 1777549757 | 10.56° C | 35% | 1031.5 hPa | - | - | - | - |
| 1777549157 | 10.56° C | 36% | 1031.5 hPa | - | - | - | - |
| 1777548557 | 10.56° C | 37% | 1036.4 hPa | - | - | - | - |
| 1777547957 | 10° C | 38% | 1036.4 hPa | - | - | - | - |
| 1777547357 | 10° C | 36% | 1031.8 hPa | - | - | - | - |
| 1777546757 | 10° C | 37% | 1031.8 hPa | - | - | - | - |
| 1777546157 | 9.44° C | 38% | 1032 hPa | - | - | - | - |
| 1777545557 | 9.44° C | 38% | 1032.1 hPa | - | - | - | - |
| 1777544957 | 9.44° C | 39% | 1034.8 hPa | - | - | - | - |
| 1777544357 | 8.89° C | 39% | 1032.3 hPa | - | - | - | - |
| 1777543757 | 8.89° C | 40% | 1032.4 hPa | - | - | - | - |
| 1777543157 | 8.89° C | 40% | 1032.5 hPa | - | - | - | - |
| 1777542557 | 8.33° C | 40% | 1032.5 hPa | - | - | - | - |
| 1777541957 | 8.33° C | 41% | 1032.6 hPa | - | - | - | - |
| 1777541357 | 11.11° C | 41% | 1032.6 hPa | - | - | - | - |
* Rain since midnight (hover to see other rain measurements)
** Current wind speed in m/s (hover to see current wind gust speed)